sat.trackr.live / text

‹ back to catalog

STARLINK-11413 [DTC]

NORAD 62593 · 2025-008G

PAYLOAD ACTIVE UNKNOWN

§ Identity

Operator
Country
US
Launch date
2025-01-13
Launch site
AFETR
Launch vehicle
Mass (kg)
RCS (m²)

Purposes: comms

External: N2YO · Heavens-Above · Gunter

§ Orbital elements

Epoch: 2026-09-21T16:03:55.778112Z

Period
91.67 min
Inclination
43.0034°
Eccentricity
0.0002859
Mean motion
15.70887918 rev/d
Perigee alt
354.4 km
Apogee alt
358.3 km
Semi-major
6,734.5 km
B*
1.1786e-3
RAAN
25.1422°
Arg perigee
270.4035°
Mean anomaly
89.6505°
Rev number
9,800

§ Raw data

STARLINK-11413 [DTC]1 62593U 25008G   26264.66939558  .00153938  00000+0  11786-2 0  99942 62593  43.0034  25.1422 0002859 270.4035  89.6505 15.70887918 98006

JSON: /api/v1/satellites/62593 · /tle

For live sub-satellite position, see the globe view (requires WebGL).

§ Visibility from observer

Set your observer location to see the next 7 days of passes ≥ 10°. The values pass through the URL so the page stays shareable.

No JS? Fill the form by hand. The geolocation button needs JavaScript.